[[{"header":{"parameterUnit":"m.s-1","parameterCategory":1,"la1":30.2991,"la2":30.254,"lo1":-89.0895,"lo2":-89.0444,"dy":0.0017,"dx":0.0017,"nx":28,"ny":28,"refTime":"2025-09-05T09:00:00:Z","depth":0,"parameterNumber":2,"parameterNumberName":"U-component_of_WINDS"},"data":[0,0,0,0,0,0,0,0,0,0,0,0,0,0,0,0,0,0,0,0,0,0,0,0,0,0,0,0,0,0,0,0,0,0,0,0,0,0,0,0,0,0,0,0,0,0,0,0,0,0,0,0,0,0,0,0,0,0,0.8879,0.8879,0,0.8903,0.8903,0.8904,0.8867,0.8865,0.8864,0.8863,0.8888,0.889,0.8892,0,0,0,0,0,0,0,0,0,0,0,0,0,0.88,0.8802,0.8879,0.8879,0.888,0.8903,0.8903,0.8904,0.8867,0.8865,0.8864,0.8862,0.8887,0.889,0.8892,0,0,0,0,0,0,0,0,0,0,0,0,0,0.883,0.8802,0.8879,0.8864,0.8863,0.8903,0.8903,0.8904,0.8867,0.8865,0.8863,0.8862,0.8887,0.8889,0.8892,0.8948,0,0,0.8901,0.8902,0,0,0,0,0,0,0,0,0.8829,0.8833,0.8866,0.8865,0.8864,0.888,0.8885,0.8919,0.8868,0.8866,0.8863,0.8861,0.8887,0.889,0.8898,0.8949,0.895,0.8901,0.8903,0.8904,0.8905,0,0,0,0,0,0,0,0.8827,0.8832,0.8889,0.8866,0.8865,0.8856,0.8858,0.8891,0.8887,0.8866,0.8863,0.8866,0.8886,0.8896,0.8899,0.8951,0.8901,0.8903,0.8905,0.8906,0.9045,0.9047,0,0,0,0,0,0,0.8826,0.883,0.8888,0.8889,0.8841,0.8859,0.8861,0.8877,0.8886,0.8886,0.8868,0.8865,0.8892,0.8895,0.8899,0.8963,0.8904,0.8906,0.8908,0.9043,0.9046,0.9048,0,0,0,0,0,0,0.8825,0.8832,0.8887,0.8859,0.8865,0.8862,0.888,0.8878,0.8888,0.8888,0.8887,0.8879,0.889,0.8895,0.8935,0.8963,0.8908,0.891,0.9041,0.9044,0.9047,0.9092,0,0,0,0,0,0,0.8823,0.8831,0.8853,0.886,0.8867,0.8923,0.8882,0.888,0.8893,0.8889,0.8898,0.8898,0.8889,0.8931,0.8938,0.8966,0.8912,0.9038,0.9042,0.9046,0.9088,0.9096,0.9104,0,0,0,0,0,0.882,0.8866,0.8854,0.8861,0.8894,0.8925,0.8929,0.8918,0.8895,0.8916,0.8916,0.8897,0.896,0.8936,0.8943,0.8973,0.9037,0.9041,0.9046,0.9085,0.9095,0.9103,0,0,0,0,0,0,0.8863,0.8866,0.8854,0.8903,0.8914,0.8918,0.8945,0.893,0.8947,0.8943,0.8929,0.8931,0.8974,0.8977,0.8951,0.9026,0.8994,0.9,0.9021,0.9031,0.9038,0.9036,0.8915,0,0,0,0,0,0.8878,0.8903,0.8904,0.8948,0.8954,0.8948,0.8962,0.8952,0.8963,0.8967,0.897,0.8981,0.9003,0.9017,0.9038,0.9089,0.9089,0.9113,0.912,0.9127,0.9132,0.9156,0.9166,0.9063,0.9063,0.9063,0,0,0.891,0.8915,0.8931,0.8956,0.8964,0.8989,0.8953,0.8981,0.8999,0.8972,0.9009,0.9011,0.9023,0.9068,0.9088,0.9072,0.916,0.9132,0.9137,0.9139,0.9162,0.9172,0.918,0.9066,0.9066,0.9065,0,0,0.8979,0.8987,0.9022,0.903,0.904,0.9036,0.9045,0.9052,0.9052,0.9089,0.9068,0.9089,0.9128,0.9136,0.9145,0.9216,0.9198,0.9223,0.9262,0.9287,0.9295,0.9302,0.9324,0.9333,0.9228,0.9228,0.9228,0,0.9017,0.9054,0.9042,0.9072,0.9082,0.9058,0.9093,0.9101,0.9118,0.9126,0.9108,0.9154,0.916,0.9205,0.9223,0.9232,0.924,0.9221,0.9294,0.9301,0.9308,0.9329,0.9338,0.9231,0.9231,0.923,0.923,0,0.9099,0.9125,0.9152,0.9168,0.9182,0.9214,0.9206,0.9222,0.9212,0.9209,0.9246,0.9252,0.9272,0.9283,0.9273,0.9326,0.9316,0.9297,0.9264,0.932,0.934,0.9349,0.9235,0.9234,0.9233,0.9233,0,0,0.9197,0.9204,0.9214,0.922,0.9229,0.9249,0.9279,0.9298,0.931,0.9323,0.9347,0.938,0.9361,0.9371,0.9363,0.9384,0.9437,0.9362,0.9362,0.9374,0.9493,0.9505,0.9515,0.9426,0.9428,0.9429,0.9491,0,0.9264,0.9316,0.9305,0.9355,0.9378,0.9354,0.938,0.9389,0.9387,0.9405,0.9404,0.9426,0.9401,0.9407,0.9427,0.9426,0.946,0.9422,0.9446,0.9448,0.9442,0.9526,0.954,0.9598,0.9499,0.95,0.9501,0,0.935,0.9364,0.9416,0.9419,0.9429,0.9452,0.9467,0.9486,0.9494,0.9491,0.9502,0.9488,0.9517,0.9486,0.9525,0.9499,0.9509,0.9509,0.9511,0.9512,0.9476,0.9526,0.9617,0.9625,0.9514,0.9513,0.9512,0,0.9412,0.9445,0.9479,0.9486,0.9491,0.9508,0.9511,0.9517,0.9529,0.9542,0.9549,0.9566,0.9575,0.9588,0.9579,0.9557,0.9618,0.9587,0.9615,0.9615,0.9628,0.9627,0.9719,0.9638,0.9638,0.9637,0.9637,0,0.9488,0.952,0.9507,0.9528,0.9563,0.955,0.9585,0.9586,0.9591,0.9611,0.9593,0.9612,0.96,0.9618,0.9612,0.9643,0.9648,0.9646,0.9643,0.9646,0.9646,0.9651,0.9645,0.964,0.9639,0.9639,0.9638,0,0.9563,0.9556,0.9592,0.9593,0.9595,0.962,0.9621,0.964,0.9637,0.9663,0.9668,0.9663,0.9683,0.9675,0.9697,0.9693,0.9732,0.9726,0.9729,0.9727,0.9754,0.9751,0.9851,0.9862,0.9776,0.9777,0.9778,0,0.9611,0.9634,0.9638,0.965,0.9654,0.9674,0.9684,0.9672,0.9684,0.9694,0.9712,0.973,0.9744,0.9777,0.9775,0.9791,0.9783,0.9817,0.9785,0.9787,0.9781,0.9778,0.978,0.9823,0.9824,0.9825,0.9825,0,0.9695,0.9689,0.9705,0.9719,0.9732,0.9743,0.9753,0.9763,0.9751,0.9766,0.9785,0.9796,0.9817,0.9835,0.9849,0.9852,0.9836,0.9835,0.9842,0.9845,0.9844,0.9842,0.9744,0.9833,0.9832,0.9831,0.9831,0.9831,0.9756,0.9775,0.9779,0.9797,0.9802,0.9811,0.9828,0.9826,0.9842,0.9858,0.985,0.9873,0.9878,0.9895,0.99,0.9917,0.9904,0.9915,0.9917,0.9919,0.9922,0.9843,0.992,0.992,0.992,0.9919,0.9919,0,0.9837,0.9838,0.9854,0.9867,0.988,0.9864,0.9873,0.9885,0.9905,0.9911,0.9925,0.9946,0.9963,0.9962,0.9977,0.9991,0.9984,0.9995,0.9993,0.9993,0.9934,0.9925,1.0,1.0,1.0,1.0,1.0,1.0,0.988,0.991,0.9905,0.9938,0.9939,0.996,0.9966,0.9973,0.9978,1.0003,1.0016,1.0015,1.0018,1.0033,1.0047,1.0046,1.0051,1.0065,1.0061,1.0006,0.9998,0.999,0.9981,1.0067,1.0067,1.0118,1.0119,1.0119]},{"header":{"parameterUnit":"m.s-1","parameterCategory":1,"la1":30.2991,"la2":30.254,"lo1":-89.0895,"lo2":-89.0444,"dy":0.0017,"dx":0.0017,"nx":28,"ny":28,"refTime":"2025-09-05T09:00:00:Z","depth":0,"parameterNumber":3,"parameterNumberName":"V-component_of_WINDS"},"data":[0,0,0,0,0,0,0,0,0,0,0,0,0,0,0,0,0,0,0,0,0,0,0,0,0,0,0,0,0,0,0,0,0,0,0,0,0,0,0,0,0,0,0,0,0,0,0,0,0,0,0,0,0,0,0,0,0,0,-0.3627,-0.3627,0,-0.36,-0.3599,-0.3599,-0.3585,-0.3585,-0.3585,-0.3585,-0.3556,-0.3555,-0.3554,0,0,0,0,0,0,0,0,0,0,0,0,0,-0.367,-0.3669,-0.3628,-0.3627,-0.3627,-0.36,-0.3599,-0.3599,-0.3585,-0.3585,-0.3585,-0.3585,-0.3556,-0.3555,-0.3554,0,0,0,0,0,0,0,0,0,0,0,0,0,-0.3648,-0.3669,-0.3628,-0.3616,-0.3615,-0.36,-0.3599,-0.3599,-0.3585,-0.3585,-0.3585,-0.3585,-0.3556,-0.3555,-0.3554,-0.3547,0,0,-0.3551,-0.355,0,0,0,0,0,0,0,0,-0.3649,-0.3646,-0.3618,-0.3617,-0.3616,-0.3596,-0.3604,-0.3581,-0.3585,-0.3596,-0.3585,-0.3585,-0.3569,-0.3567,-0.3562,-0.3546,-0.3545,-0.355,-0.355,-0.3549,-0.3549,0,0,0,0,0,0,0,-0.365,-0.3647,-0.3616,-0.3618,-0.3616,-0.3613,-0.361,-0.3599,-0.3583,-0.3595,-0.3594,-0.3591,-0.3568,-0.3563,-0.3561,-0.3544,-0.355,-0.3549,-0.3549,-0.3548,-0.3524,-0.3524,0,0,0,0,0,0,-0.3654,-0.3649,-0.3617,-0.3616,-0.3633,-0.3613,-0.3609,-0.3602,-0.3583,-0.358,-0.3591,-0.3591,-0.3565,-0.3562,-0.356,-0.3552,-0.3549,-0.3548,-0.3548,-0.3524,-0.3524,-0.3524,0,0,0,0,0,0,-0.3655,-0.3651,-0.3618,-0.3632,-0.3627,-0.3612,-0.3604,-0.3602,-0.3596,-0.358,-0.3577,-0.3588,-0.3565,-0.3561,-0.3551,-0.355,-0.3548,-0.3547,-0.3524,-0.3524,-0.3524,-0.3535,0,0,0,0,0,0,-0.3656,-0.3651,-0.3648,-0.3632,-0.3627,-0.361,-0.3604,-0.3601,-0.3594,-0.3593,-0.3577,-0.3574,-0.3564,-0.3553,-0.355,-0.3549,-0.3546,-0.3524,-0.3524,-0.3524,-0.3535,-0.3535,-0.3536,0,0,0,0,0,-0.3658,-0.3652,-0.3648,-0.3644,-0.3622,-0.361,-0.3607,-0.3596,-0.3594,-0.3591,-0.3581,-0.3574,-0.3551,-0.3552,-0.3548,-0.3547,-0.3524,-0.3524,-0.3524,-0.3534,-0.3535,-0.3536,0,0,0,0,0,0,-0.3668,-0.3649,-0.3645,-0.3634,-0.3624,-0.3607,-0.3603,-0.3597,-0.3587,-0.3586,-0.3573,-0.357,-0.3561,-0.3553,-0.3554,-0.3541,-0.3537,-0.3536,-0.3546,-0.3547,-0.3547,-0.3549,-0.3545,0,0,0,0,0,-0.3669,-0.366,-0.3644,-0.3636,-0.3631,-0.3618,-0.3612,-0.3605,-0.3594,-0.3589,-0.3578,-0.3568,-0.3558,-0.3552,-0.3542,-0.3534,-0.3531,-0.3531,-0.3532,-0.3533,-0.3532,-0.3529,-0.3529,-0.3524,-0.3524,-0.3524,0,0,-0.367,-0.366,-0.3654,-0.3638,-0.3629,-0.3621,-0.3614,-0.3605,-0.3599,-0.3588,-0.3577,-0.357,-0.3557,-0.3548,-0.3544,-0.3541,-0.3533,-0.3533,-0.3534,-0.3533,-0.3529,-0.353,-0.353,-0.3524,-0.3524,-0.3524,0,0,-0.367,-0.366,-0.3653,-0.3645,-0.3632,-0.3624,-0.3622,-0.3607,-0.3602,-0.3591,-0.3583,-0.3576,-0.356,-0.3552,-0.3545,-0.3545,-0.3538,-0.3542,-0.3545,-0.3542,-0.3543,-0.3543,-0.3544,-0.3544,-0.3541,-0.3541,-0.3542,0,-0.3673,-0.366,-0.365,-0.3642,-0.3635,-0.3626,-0.3619,-0.3611,-0.3596,-0.3592,-0.359,-0.3571,-0.3561,-0.3551,-0.3551,-0.3546,-0.3545,-0.3543,-0.3543,-0.3544,-0.3544,-0.3544,-0.3544,-0.3542,-0.3542,-0.3542,-0.3542,0,-0.3666,-0.3657,-0.3653,-0.3639,-0.3632,-0.3625,-0.3614,-0.3609,-0.3603,-0.3595,-0.3586,-0.3575,-0.3564,-0.3561,-0.3555,-0.3551,-0.355,-0.3546,-0.3542,-0.3545,-0.3545,-0.3545,-0.3543,-0.3543,-0.3542,-0.3542,0,0,-0.3668,-0.3651,-0.365,-0.3644,-0.3631,-0.3624,-0.3617,-0.3606,-0.3602,-0.3593,-0.3587,-0.3575,-0.3572,-0.3565,-0.3558,-0.3555,-0.3557,-0.3552,-0.3551,-0.3553,-0.3553,-0.3556,-0.3556,-0.3553,-0.3553,-0.3553,-0.3554,0,-0.3665,-0.3652,-0.3644,-0.3635,-0.3627,-0.3619,-0.3614,-0.3605,-0.3599,-0.3592,-0.3584,-0.3576,-0.3572,-0.3568,-0.3565,-0.3557,-0.3557,-0.3557,-0.3548,-0.3548,-0.3551,-0.3556,-0.3559,-0.3561,-0.3554,-0.3554,-0.3554,0,-0.366,-0.3652,-0.3642,-0.3631,-0.3628,-0.3622,-0.3613,-0.3607,-0.3598,-0.3593,-0.3587,-0.3581,-0.3574,-0.3571,-0.3563,-0.3564,-0.356,-0.3556,-0.3556,-0.3554,-0.3551,-0.3555,-0.3561,-0.3561,-0.3554,-0.3554,-0.3554,0,-0.3664,-0.365,-0.3643,-0.3638,-0.3625,-0.3622,-0.3617,-0.3608,-0.3603,-0.3595,-0.3592,-0.3584,-0.3579,-0.3573,-0.3565,-0.3564,-0.3558,-0.3554,-0.3555,-0.3555,-0.3553,-0.3553,-0.3558,-0.3551,-0.3551,-0.3551,-0.3551,0,-0.3661,-0.3655,-0.3644,-0.364,-0.3634,-0.3625,-0.362,-0.3614,-0.3606,-0.3601,-0.3594,-0.3589,-0.3579,-0.3574,-0.3568,-0.3562,-0.356,-0.3557,-0.3555,-0.3557,-0.3558,-0.3554,-0.3554,-0.3551,-0.3551,-0.3551,-0.3551,0,-0.3663,-0.3656,-0.3648,-0.3637,-0.3634,-0.363,-0.3622,-0.3617,-0.3612,-0.3605,-0.3603,-0.3594,-0.3587,-0.3579,-0.3569,-0.3566,-0.3561,-0.3559,-0.3564,-0.3563,-0.3564,-0.3564,-0.3567,-0.3567,-0.356,-0.356,-0.356,0,-0.3662,-0.3658,-0.3648,-0.3644,-0.3639,-0.3633,-0.3628,-0.3621,-0.3616,-0.3607,-0.3605,-0.3598,-0.3591,-0.3582,-0.3574,-0.3567,-0.3565,-0.3566,-0.3564,-0.3567,-0.3566,-0.3566,-0.3566,-0.3567,-0.3567,-0.3567,-0.3567,0,-0.3661,-0.3658,-0.3652,-0.3645,-0.364,-0.3634,-0.3628,-0.3626,-0.3617,-0.3612,-0.3606,-0.3602,-0.3593,-0.3587,-0.3579,-0.3574,-0.357,-0.3568,-0.3568,-0.357,-0.3574,-0.3573,-0.3566,-0.3568,-0.3568,-0.3568,-0.3568,-0.3568,-0.3662,-0.3659,-0.3651,-0.3645,-0.364,-0.3635,-0.3631,-0.3626,-0.362,-0.3613,-0.3609,-0.3603,-0.3597,-0.3587,-0.3582,-0.3578,-0.3576,-0.3575,-0.3575,-0.3575,-0.3577,-0.3575,-0.3577,-0.3577,-0.3577,-0.3576,-0.3576,0,-0.3661,-0.3657,-0.3651,-0.3644,-0.3639,-0.3636,-0.363,-0.3627,-0.3622,-0.3616,-0.3611,-0.3605,-0.3599,-0.3592,-0.3587,-0.3585,-0.3583,-0.3583,-0.3583,-0.3583,-0.3578,-0.3579,-0.3585,-0.3585,-0.3585,-0.3585,-0.3585,-0.3585,-0.366,-0.3655,-0.3651,-0.3644,-0.364,-0.3634,-0.3631,-0.3627,-0.3623,-0.3616,-0.3612,-0.3608,-0.3602,-0.3596,-0.3592,-0.359,-0.3588,-0.359,-0.3588,-0.3584,-0.3583,-0.3582,-0.3583,-0.359,-0.359,-0.3593,-0.3593,-0.3593]}]]